Regional Weather Roundup
Issued by NWS

Home | Current Version | Previous Version | Graphics & Text | Print | Product List | Glossary On
Versions: 1 2 3 4 5 6 7 8 9 10 11 12 13 14 15 16 17 18 19 20 21 22 23 24 25 26 27 28 29 30 31 32 33 34 35 36 37 38 39 40 41 42 43 44 45 46 47 48 49 50
000
ASUS45 KTFX 050610
RWRMT
MONTANA REGIONAL WEATHER ROUNDUP
NATIONAL WEATHER SERVICE GREAT FALLS MT
1200 AM MDT SUN JUL 05 2015

NOTE: "FAIR" INDICATES FEW OR NO CLOUDS BELOW 12000 FEET WITH NO
SIGNIFICANT WEATHER AND/OR OBSTRUCTIONS TO VISIBILITY.

MTZ001>007-043-050700-
WEST OF THE DIVIDE

CITY           SKY/WX    TMP DP  RH WIND       PRES   REMARKS
KALISPELL      PTCLDY    70  48  45 N31G39    29.84R
MISSOULA       PTCLDY    76  39  26 NW6       29.81R
BUTTE          MOCLDY    68  38  33 SE6       29.97R
MULLAN PASS    PTCLDY    70  35  27 W5        30.01F
DEER LODGE       N/A     73  39  29 NW3       29.94R
EUREKA           N/A     70  48  46 NE17G28   29.87R
HAMILTON         N/A     70  50  49 S3        29.84R
LIBBY            N/A     72  46  40 SE6       29.76S
PLAINS           N/A     70  48  45 CALM      29.80R
RONAN            N/A     69  53  56 CALM      29.87R
THOMPSON FALLS   N/A     70  48  45 CALM      29.83R
$$

MTZ008-052>055-050700-
SOUTHWEST MONTANA

CITY           SKY/WX    TMP DP  RH WIND       PRES   REMARKS
BOZEMAN        PTCLDY    65  47  52 SE9       29.85R
DILLON         PTCLDY    66  38  35 W5        29.91R
W YELLOWSTONE  MOCLDY    63  41  45 E3        30.05S
THREE FORKS      N/A     66  65  97 CALM      29.86R
TWIN BRIDGES     N/A     67  40  37 SW1       29.90R
$$

MTZ009-010-012-014-046-048-049-054-050700-
EAST SLOPES AND CENTRAL MONTANA

CITY           SKY/WX    TMP DP  RH WIND       PRES   REMARKS
CUT BANK       CLOUDY    53  51  93 N23G29    30.10R FOG
GREAT FALLS    PTCLDY    62  51  67 N17G33    29.94R
MALMSTROM AFB  PTCLDY    63  51  65 N22G39    29.93R
HELENA         MOCLDY    76  48  37 W8        29.84R
CONRAD           N/A     56  56 100 NW14      30.08R
$$

MTZ011-013-016-021-045-047-050-051-050700-
NORTH CENTRAL MONTANA

CITY           SKY/WX    TMP DP  RH WIND       PRES   REMARKS
LEWISTOWN      MOCLDY    71  55  56 SE12      29.84S
FORT BENTON      N/A     63  54  72 N22G33    29.91R
$$

MTZ017>020-022>027-061-062-050700-
NORTHEAST MONTANA

CITY           SKY/WX    TMP DP  RH WIND       PRES   REMARKS
GLASGOW        PTCLDY    69  54  58 NE17      29.78R
JORDAN           N/A     73  59  61 E8        29.76F
SIDNEY         CLEAR     70  61  73 N9        29.77F
WOLF POINT     CLEAR     68  56  65 NE10      29.77F HAZE
PLENTYWOOD       N/A     64  57  77 NE12      29.80F
POPLAR           N/A     66  57  72 NE7       29.77F
SCOBEY           N/A     59  51  74 N2        29.83F
$$

MTZ028>42-056>058-050700-
SOUTHCENTRAL AND SOUTHEAST MONTANA

CITY           SKY/WX    TMP DP  RH WIND       PRES   REMARKS
BAKER          PTCLDY    66  57  72 E3        29.79S
BILLINGS       PTCLDY    78  54  43 NE9       29.80F
LIVINGSTON     PTCLDY    74  48  39 SE10      29.86S
MILES CITY     MOCLDY    73  57  57 NE9       29.75F
EKALAKA          N/A     71  56  59 SE7       29.82F
FORSYTH          N/A     72  55  56 CALM      29.74S
LAUREL           N/A     76  51  41 CALM      29.81F
ROUNDUP          N/A     75  57  53 CALM      29.74F
$$

REGIONAL REPORTS...DAKOTAS

CITY           SKY/WX    TMP DP  RH WIND       PRES   REMARKS
WILLISTON      CLEAR     68  62  81 N12       29.78S
MINOT          CLEAR     63  61  93 NW3       29.76R
DICKINSON      CLEAR     68  57  68 NE7       29.76F
BEACH          FAIR      59  59 100 N8        29.79F
CROSBY         FAIR      61  61 100 N6        29.81R
BISMARCK       CLEAR     74  69  85 CALM      29.72R
GRAND FORKS    LGT RAIN  75  68  78 SW12      29.72R
FARGO          CLOUDY    74  65  73 S12       29.77R
BUFFALO SD       N/A     69  53  56 E8        29.74S
RAPID CITY     PTCLDY    64  60  87 NW6       29.82S FOG
$$

REGIONAL REPORTS...WYOMING/IDAHO/WASHINGTON

CITY           SKY/WX    TMP DP  RH WIND       PRES   REMARKS
GILLETTE       CLEAR     74  46  36 S14       29.85F
SHERIDAN       PTCLDY    67  55  65 SW6       29.80F
BUFFALO WY     CLEAR     75  51  43 S10       29.91F
CODY           CLEAR     75  43  31 CALM      29.90F
YELLOWSTONE LA   N/A     56  41  57 NW3       30.17F
IDAHO FALLS    CLOUDY    76  51  41 S16       29.90S
SALMON         MOCLDY    75  46  35 S6        29.83R
BOISE          MOCLDY    83  38  20 CALM      29.78R
SPOKANE        PTCLDY    83  36  18 N7        29.75R
$$

REGIONAL REPORTS...ALBERTA

CITY           SKY/WX    TMP DP  RH WIND       PRES   REMARKS
EDMONTON       MOCLDY    55  43  62 NW15      30.06S
CALGARY        MOCLDY    57  41  54 W10       30.15R
LETHBRIDGE     LGT RAIN  54  50  87 NW18G26   30.14R
MEDICINE HAT   LGT RAIN  55  54  94 N12G18    30.05R
WATERTON GATE    N/A     48  46  93 N7          N/A
MILK RIVER       N/A     52  50  93 N18G25      N/A
ONEFOUR          N/A     55  52  88 N21G28      N/A
$$

REGIONAL REPORTS...SASKATCHEWAN

CITY           SKY/WX    TMP DP  RH WIND       PRES   REMARKS
SWIFT CURRENT  MOCLDY    63  50  63 N7        29.96R HAZE
SASKATOON      CLOUDY    63  48  59 W9        29.89F SMOKE
CYPRESS HILLS    N/A     50  48  93 N8          N/A
VAL MARIE        N/A     61  57  88 N12         N/A
$$



USA.gov is the U.S. government's official web portal to all federal, state and local government web resources and services.